Theta_e
353 360 363 363 363 364 365 365 364 363 362 361 362 361 360 360 361 362 361 360 361 359 357 354 351 351 351 352 354 354 355 354 354 354 354 354 353 354 354 351 348 346 349
356 361 362 363 363 364 364 364 363 363 362 362 362 362 360 361 362 361 361 359 358 356 354 351 348 348 350 352 353 354 355 355 354 353 351 352 355 353 351 350 348 349 349
357 361 360 362 363 363 363 363 363 362 362 362 362 361 361 361 361 361 360 359 357 354 352 348 346 347 349 351 353 354 354 354 353 351 348 346 347 352 348 349 348 349 349
358 361 358 362 362 362 362 361 361 362 362 362 361 361 360 360 360 359 358 357 355 352 350 345 344 344 346 348 349 350 350 349 349 349 350 350 348 350 349 348 346 349 350
358 360 359 362 361 361 361 360 360 360 361 361 361 360 360 360 359 358 358 357 353 351 346 343 342 344 343 343 344 345 345 344 343 344 346 347 348 348 350 349 348 346 348
356 358 361 361 360 360 360 359 359 360 360 360 360 360 360 359 358 358 357 356 354 349 345 344 344 344 343 341 344 344 343 342 340 340 345 345 344 348 350 350 349 348 346
355 357 359 360 360 360 359 359 359 359 359 359 360 359 359 358 357 357 356 354 353 351 348 345 345 346 345 343 341 342 341 343 337 339 339 344 346 345 350 351 351 350 348
355 358 359 360 360 359 359 358 358 358 358 359 359 358 358 357 356 355 355 354 353 351 349 347 347 347 345 344 344 343 343 344 338 337 337 342 342 346 350 353 353 351 348
355 357 359 357 359 359 358 358 357 357 357 357 357 357 357 356 355 355 354 353 353 351 350 350 348 347 345 344 344 344 343 343 338 339 336 337 339 344 352 354 354 352 348
354 355 357 357 355 354 356 358 357 357 357 357 357 356 356 355 355 354 352 352 352 351 351 350 348 347 346 344 344 344 342 343 339 338 341 339 339 343 347 353 354 353 349
349 354 355 355 356 354 353 355 357 357 357 357 356 356 353 348 350 350 348 351 352 351 351 350 349 347 346 344 344 343 343 338 337 339 342 344 343 344 347 353 356 354 352
345 350 353 355 355 354 351 355 355 354 353 353 352 353 351 351 351 346 348 349 351 351 350 350 350 348 345 340 339 341 338 337 335 339 343 344 344 346 347 353 356 356 354
345 349 351 355 357 353 352 353 354 353 354 355 355 356 354 350 350 348 345 345 345 348 342 344 343 342 341 341 338 338 339 341 340 341 343 344 345 347 349 353 354 357 355
343 347 351 355 356 355 354 353 353 352 354 353 354 355 353 351 350 347 345 344 346 342 343 343 340 342 343 344 343 341 340 342 343 343 345 344 345 347 349 355 356 357 356
344 347 350 353 355 356 356 354 354 353 353 353 353 354 352 349 349 348 346 345 342 341 340 340 340 341 344 345 344 343 342 343 344 343 344 346 345 346 347 353 356 356 356
345 348 350 352 355 356 356 358 355 355 354 354 353 354 353 351 351 347 347 345 344 342 340 339 340 342 343 345 345 344 344 345 345 346 344 346 344 344 346 352 357 357 356
336 348 349 351 353 354 354 356 356 355 354 353 353 353 352 351 353 350 347 345 343 344 343 341 342 343 342 343 346 347 346 347 346 347 347 346 346 343 346 351 354 357 357
331 342 350 349 351 352 351 353 353 353 353 353 353 352 350 354 353 350 347 344 344 342 341 341 342 342 343 343 346 348 348 348 347 347 346 346 347 347 347 348 352 354 356
328 337 347 351 349 351 353 352 352 354 351 352 352 351 354 353 351 351 349 345 342 340 340 340 341 342 342 345 346 347 346 345 345 342 345 347 350 349 349 348 349 350 352
323 331 341 349 351 349 348 349 349 349 349 350 350 351 352 353 351 350 347 347 342 340 339 339 341 343 343 344 342 343 345 345 345 344 345 346 349 351 352 353 352 349 348
321 325 333 341 350 348 345 343 343 342 344 346 347 349 349 349 348 348 345 342 341 340 341 342 342 343 343 344 342 343 344 347 346 343 345 345 347 349 353 354 354 352 350
321 325 327 331 341 347 347 347 346 346 346 346 347 347 348 347 347 346 342 343 343 341 342 344 344 341 343 345 342 339 333 338 336 339 345 346 348 349 350 351 354 354 353
318 322 326 328 334 343 348 347 346 348 347 345 345 345 347 348 348 347 345 343 346 348 345 345 344 340 337 342 343 338 331 326 331 337 340 344 347 345 345 348 351 349 354
316 318 323 327 330 333 345 346 346 342 340 343 346 347 348 350 350 350 348 348 348 348 343 339 339 339 336 333 339 342 341 336 330 328 338 343 341 343 347 345 345 349 352
314 315 319 325 329 331 337 345 345 345 344 346 346 348 350 350 350 350 351 351 350 345 343 340 337 332 329 326 328 334 335 339 337 334 325 330 340 342 343 343 345 347 351
316 317 317 320 326 330 333 339 346 347 344 340 341 343 345 346 347 349 348 350 345 343 342 339 339 340 333 332 331 335 332 331 330 331 329 328 332 337 340 343 344 345 348
Wind_Speed
11 14 13 12 10 12 15 17 19 19 19 19 19 18 18 17 16 14 14 13 11 12 12 11 12 12 12 12 12 12 11 11 11 10 8 6 4 5 7 5 4 6 6
15 16 14 13 11 12 14 16 18 19 19 19 19 18 18 16 15 14 13 13 12 11 11 11 11 11 12 12 12 11 11 11 10 8 6 6 8 6 4 3 1 6 5
17 16 16 13 13 11 13 15 17 17 18 18 18 18 17 16 15 14 12 11 12 11 11 10 11 10 11 11 11 11 10 9 8 7 5 4 5 4 2 2 2 2 4
20 16 17 15 14 13 13 14 16 17 18 18 17 17 16 15 14 13 12 12 12 11 11 11 10 10 11 11 11 10 9 8 6 4 4 3 3 5 3 2 1 2 3
18 17 16 16 15 15 14 15 15 16 16 17 18 18 16 15 14 13 12 11 12 11 11 11 10 9 8 8 8 8 7 5 3 5 2 0 2 5 5 4 5 4 4
17 16 17 16 14 14 15 14 13 13 15 16 15 15 16 16 15 13 12 11 10 11 11 11 10 8 8 7 6 6 6 4 3 1 1 2 5 4 7 6 5 4 5
17 16 17 15 15 14 15 15 13 11 11 12 16 14 14 14 14 14 13 12 12 12 11 11 10 9 8 7 6 5 4 4 4 2 2 3 2 8 8 7 7 6 6
18 17 16 16 15 14 15 14 14 13 11 10 12 15 15 14 13 13 12 12 10 10 10 10 10 9 8 7 7 6 5 5 6 4 4 3 4 8 11 10 10 9 8
16 16 15 16 16 15 14 15 15 14 13 11 11 11 13 13 13 12 11 10 9 9 8 8 8 8 7 7 7 7 7 6 6 4 5 4 6 8 11 11 9 10 9
15 16 15 15 15 15 14 14 15 14 13 12 10 10 11 10 11 11 9 9 9 9 9 8 8 7 7 7 6 6 6 7 7 5 5 4 8 9 11 12 13 12 11
13 15 15 15 13 14 14 14 14 16 14 12 11 10 8 8 10 12 11 10 9 8 8 8 7 7 6 6 7 7 6 4 5 5 4 5 9 9 9 12 13 13 13
16 16 14 15 15 14 11 13 13 12 11 11 11 11 9 8 7 7 6 10 8 8 7 7 7 7 7 5 4 7 4 5 5 4 4 5 10 10 10 10 13 14 13
11 12 15 14 15 15 13 10 8 8 8 9 12 10 9 7 6 6 5 5 6 8 6 8 7 7 6 5 5 4 4 5 4 4 4 5 9 12 12 11 12 14 13
13 14 15 15 13 13 10 11 10 9 10 9 11 12 9 7 7 7 5 6 5 4 5 6 5 6 7 7 7 7 6 6 4 3 4 7 8 11 11 12 12 13 13
14 15 18 17 16 15 15 11 11 11 10 10 10 12 10 9 8 7 6 6 5 5 5 5 5 5 6 7 6 7 7 7 7 5 4 6 8 8 10 11 11 13 14
12 15 16 19 17 16 14 14 11 10 11 11 11 11 13 9 7 8 7 7 7 7 6 5 5 5 6 6 7 7 8 7 7 8 6 5 8 10 9 11 12 14 14
13 11 14 15 14 16 17 14 12 12 13 12 10 10 11 9 9 8 7 7 6 5 6 5 5 5 5 6 9 8 8 8 8 8 7 6 6 10 12 12 13 15 14
12 14 14 14 18 17 15 12 11 12 12 11 10 9 11 16 15 11 8 8 6 5 5 5 5 5 5 6 6 7 7 8 9 9 8 7 6 6 8 13 14 14 14
12 14 15 16 18 20 17 14 13 12 11 10 10 10 17 16 13 12 10 9 8 6 6 5 6 6 5 6 7 7 7 8 9 8 10 9 9 8 6 8 12 13 14
13 12 13 13 16 15 11 10 9 9 11 11 12 12 16 13 14 10 7 8 7 6 6 6 6 5 7 5 6 8 8 9 9 8 9 8 9 8 8 8 6 7 13
9 10 13 13 15 12 12 12 11 13 12 12 13 15 15 12 13 11 6 7 8 6 6 7 7 6 5 4 3 6 7 8 9 8 6 6 9 6 4 5 4 5 5
8 8 10 13 12 13 11 11 10 11 11 10 10 12 14 15 13 11 8 6 6 6 4 5 3 4 4 3 1 2 5 4 3 4 2 1 3 4 4 4 5 5 6
11 9 10 12 13 14 15 10 7 5 4 8 11 12 15 17 14 14 13 12 10 9 8 7 7 1 0 3 4 3 4 2 5 2 3 3 0 5 5 5 6 4 7
14 12 11 12 13 13 14 13 16 13 13 11 11 12 11 14 15 15 12 12 13 9 10 12 9 7 2 1 3 2 6 4 3 9 2 2 2 7 5 6 9 3 5
14 14 12 11 12 14 15 17 14 15 12 9 9 11 12 11 14 14 15 15 14 11 11 12 11 10 7 5 8 8 6 3 4 6 9 6 4 6 6 7 6 8 3
14 13 12 13 14 14 15 18 18 17 14 9 9 9 9 8 9 12 14 13 12 11 13 13 10 11 12 12 12 10 5 4 5 3 4 10 9 11 6 6 6 5 4
Wind_Direction
163 154 153 157 147 145 143 142 143 139 139 141 147 146 142 144 143 140 139 138 138 135 129 123 115 117 119 120 118 118 116 109 105 103 101 96 109 110 97 99 129 99 100
155 156 156 157 152 148 143 141 139 138 140 144 147 146 142 144 143 144 146 146 140 138 130 122 122 128 128 129 128 125 117 115 115 116 121 118 112 83 83 95 88 95 112
151 157 161 159 154 148 143 136 134 136 140 145 145 145 145 147 148 149 148 144 145 141 130 129 133 135 132 133 129 126 123 122 125 128 132 94 94 104 107 129 144 132 122
150 161 164 161 158 151 144 139 137 141 146 147 147 146 147 147 147 146 147 152 150 142 140 140 141 142 143 142 139 137 134 133 143 154 177 114 92 139 156 164 206 208 171
155 159 162 161 160 155 151 147 146 147 151 151 150 149 149 149 148 150 155 158 152 147 146 145 144 143 143 142 140 134 129 136 151 202 152 208 236 147 178 182 197 208 211
158 162 154 158 160 158 154 152 150 153 153 151 153 153 153 154 154 157 159 157 154 156 156 152 146 144 142 139 136 134 137 142 203 217 320 4 238 160 192 195 212 203 213
160 164 159 157 159 161 160 158 153 156 159 159 155 159 162 162 162 160 161 162 165 166 164 159 155 149 145 143 142 141 152 158 221 209 266 328 193 185 199 199 217 209 204
160 164 161 157 160 164 164 163 157 159 166 173 171 167 170 169 169 166 164 167 171 169 170 167 162 157 154 157 159 164 181 206 200 218 219 194 153 181 198 201 209 213 204
165 167 167 171 167 165 167 165 161 163 169 178 186 182 177 173 171 171 170 172 174 174 179 175 171 167 172 180 183 188 197 210 239 221 228 215 179 204 206 207 208 216 214
170 174 174 174 178 178 172 170 166 167 173 175 189 195 189 180 176 177 172 181 181 181 187 186 180 183 194 202 213 220 221 231 238 234 228 219 216 215 219 213 203 208 217
179 183 180 176 181 184 182 180 173 175 178 179 185 202 198 200 198 189 187 168 190 190 193 193 194 202 212 227 239 238 245 243 243 242 246 206 231 228 228 220 210 207 210
185 188 190 186 182 184 187 185 188 187 193 196 196 200 207 215 219 220 198 193 193 192 198 203 209 216 228 238 228 232 242 254 246 256 265 281 266 247 243 232 222 213 214
197 197 194 194 186 184 189 189 192 193 190 195 198 202 210 214 215 219 210 205 210 199 213 203 211 225 231 248 248 251 256 252 246 244 267 283 275 277 266 250 235 221 215
203 202 200 195 188 192 191 190 193 200 200 196 198 198 201 213 214 219 218 203 207 214 224 229 230 240 241 242 251 262 255 258 248 251 247 242 257 272 280 269 238 223 218
215 207 205 198 193 192 198 195 195 200 203 205 201 201 206 215 211 213 217 215 210 207 220 230 246 254 255 251 246 250 257 258 263 263 262 236 255 274 291 282 240 227 226
226 215 207 206 200 193 198 201 199 203 204 207 202 207 206 218 222 215 218 219 221 208 207 228 238 257 268 277 262 252 259 267 268 268 265 267 235 246 245 252 246 228 228
228 216 209 208 199 202 200 194 199 201 205 210 203 204 203 207 223 230 232 227 219 232 227 220 219 233 259 276 282 283 278 270 273 273 268 261 257 221 242 230 237 236 227
239 228 218 206 204 201 202 202 204 206 208 213 209 195 199 205 208 206 224 232 206 195 227 232 240 234 244 254 269 278 282 285 283 281 278 272 262 263 223 233 228 238 234
253 233 221 209 211 210 210 205 202 200 207 207 205 204 216 221 217 198 204 206 188 192 193 215 239 254 256 265 272 276 281 281 280 279 276 265 263 259 256 224 229 231 237
264 247 226 216 217 209 207 214 216 206 206 207 213 216 217 217 216 209 224 226 206 196 183 189 215 232 259 272 286 288 281 278 272 264 269 267 260 262 257 257 249 240 233
243 243 229 217 214 203 203 204 209 216 211 212 216 214 217 217 213 207 208 210 196 221 192 163 200 217 242 244 282 289 287 271 272 273 266 268 261 256 275 243 245 253 252
281 259 237 226 227 217 213 210 212 222 222 220 217 214 212 218 205 201 193 209 209 174 162 169 171 139 208 160 315 304 321 309 29 344 337 256 282 283 253 255 241 246 258
299 270 249 239 230 219 217 212 205 195 215 199 211 212 209 208 202 194 189 170 175 181 147 148 117 228 126 91 91 316 316 305 336 289 341 16 133 262 299 281 272 287 263
304 304 272 246 232 227 218 215 213 213 211 218 213 211 202 207 208 211 199 189 181 174 143 154 168 179 164 40 351 193 269 288 346 303 231 337 318 289 276 275 272 243 259
312 302 292 272 249 232 217 219 215 223 225 211 209 212 206 197 202 202 206 200 191 187 181 189 200 212 173 210 252 264 239 273 247 255 295 326 309 249 257 279 300 300 319
321 311 297 278 260 242 224 218 220 222 213 209 187 199 203 199 189 195 200 206 207 203 196 202 204 204 194 213 213 207 208 180 209 281 285 304 303 300 280 271 277 278 232